Location: LDNL
(36.4545°S, 141.6685°E)
Time: 03:19:11
(UTC+11:00)

Vanguard 2 - Pass Details

Date: 16 August 2022
Orbit: 552 x 2934 km, 32.9° (Epoch: 06 October)

Event Time Altitude Azimuth Distance (km) Brightness Sun altitude
Rises 22:36:49 0° 259° (W) 5,664 12.5 -54.6°
Reaches altitude 10° 22:41:53 10° 270° (W) 4,210 11.6 -55.5°
Enters shadow 22:45:02 17° 282° (WNW) 3,361 10.9 -56.0°
Maximum altitude 22:49:50 25° 318° (NW) 2,465 - -56.8°
Drops below altitude 10° 22:55:21 10° 11° (N) 2,820 - -57.7°
Sets 22:58:01 0° 25° (NNE) 3,490 - -58.1°
